Location: Rochester
(43.1610°N, 77.6109°W)
Time: 05:24:19
(UTC-04:00)

ISS - Visible Passes

Search period start: 21 May 2019 00:00
Search period end: 31 May 2019 00:00
Orbit: 407 x 410 km, 51.6° (Epoch: 21 May)

Date Brightness Start Highest point End Pass type
(mag) Time Alt. Az. Time Alt. Az. Time Alt. Az.
21 May -1.0 00:37:26 10° NW 00:39:52 19° N 00:42:20 10° NE visible
21 May -1.3 02:13:56 10° NW 02:14:58 18° NW 02:14:58 18° NW visible
21 May -1.9 22:08:24 10° W 22:11:24 32° NNW 22:14:26 10° NE visible
21 May -0.9 23:46:16 10° NW 23:48:41 18° N 23:51:06 10° NE visible
22 May -1.4 01:23:04 10° NW 01:24:57 23° NNW 01:24:57 23° NNW visible
22 May -2.6 21:17:09 10° WSW 21:20:20 46° NNW 21:23:33 10° NE visible
22 May -1.0 22:55:00 10° NW 22:57:29 19° N 22:59:59 10° NE visible
23 May -1.4 00:32:10 10° NW 00:34:52 23° NNE 00:35:18 22° NNE visible
23 May -1.2 22:03:38 10° WNW 22:06:18 22° NNW 22:08:59 10° NE visible
23 May -1.1 23:41:10 10° NW 23:43:41 20° N 23:45:47 12° NE visible
24 May -1.1 01:17:35 10° NW 01:18:29 17° NW 01:18:29 17° NW visible
24 May -1.6 21:12:14 10° W 21:15:09 27° NNW 21:18:03 10° NE visible
24 May -1.0 22:50:03 10° NW 22:52:27 18° N 22:54:52 10° NE visible
25 May -1.8 00:26:41 10° NW 00:29:01 29° N 00:29:01 29° N visible
25 May -1.0 21:58:47 10° NW 22:01:14 19° N 22:03:40 10° NE visible
25 May -1.7 23:35:46 10° NW 23:38:35 25° NNE 23:39:35 21° NE visible
26 May -0.8 01:12:07 10° WNW 01:12:18 11° WNW 01:12:18 11° WNW visible
26 May -1.2 21:07:25 10° WNW 21:10:00 20° N 21:12:34 10° NE visible
26 May -1.4 22:44:46 10° NW 22:47:22 21° N 22:49:58 10° ENE visible
27 May -1.9 00:21:07 10° NW 00:22:54 28° NW 00:22:54 28° NW visible
27 May -1.2 21:53:41 10° NW 21:56:08 19° N 21:58:34 10° NE visible
27 May -2.7 23:30:11 10° NW 23:33:19 39° NNE 23:33:31 39° NE visible
28 May -2.0 22:39:14 10° NW 22:42:10 28° NNE 22:44:09 16° ENE visible
29 May -1.5 00:15:39 10° WNW 00:16:51 20° WNW 00:16:51 20° WNW visible
29 May -1.6 21:48:15 10° NW 21:50:57 23° NNE 21:53:39 10° ENE visible
29 May -3.5 23:24:35 10° NW 23:27:31 67° NW 23:27:31 67° NW visible
30 May -3.1 22:33:34 10° NW 22:36:48 49° NNE 22:38:12 28° E visible
